FW3805 Weather Reports


Display with metric or nautical units.
time (UTC)temp
F
wind
direction
speed
MPH
gust
MPH
rain 1hr
in
rain 24hr
in
rain mn
in
humidity
%
barometer
mb
20190921194523 80 0.0 1.0 0.00 0.00 0.00 72 1023.8
20190921193523 80 0.0 0.0 0.00 0.00 0.00 72 1023.8
20190921192526 81 0.0 0.0 0.00 0.00 0.00 72 1023.9
20190921191529 81 0.0 0.0 0.00 0.00 0.00 72 1023.9
20190921190531 81 0.0 0.0 0.00 0.00 0.00 72 1023.9
20190921185516 81 0.0 0.0 0.00 0.00 0.00 72 1024.1
20190921184519 81 0.0 0.0 0.00 0.00 0.00 71 1024.1
20190921183521 81 0.0 0.0 0.00 0.00 0.00 72 1024.1
20190921182524 81 0.0 0.0 0.00 0.00 0.00 71 1024.1
20190921181527 82 0.0 0.0 0.00 0.00 0.00 70 1024.3
20190921180524 81 0.0 0.0 0.00 0.00 0.00 70 1024.4
20190921175521 82 0.0 0.0 0.00 0.00 0.00 67 1024.4
20190921174517 81 0.0 0.0 0.00 0.00 0.00 63 1024.5
20190921173520 81 0.0 0.0 0.00 0.00 0.00 63 1024.6
20190921172523 81 0.0 0.0 0.00 0.00 0.00 64 1024.7
20190921171526 81 0.0 0.0 0.00 0.00 0.00 63 1024.8
20190921170529 81 0.0 0.0 0.00 0.00 0.00 66 1024.9
20190921165531 80 0.0 0.0 0.00 0.00 0.00 65 1025.1
20190921164516 80 0.0 0.0 0.00 0.00 0.00 63 1025.2
20190921163519 80 0.0 0.0 0.00 0.00 0.00 63 1025.2
20190921162521 79 0.0 0.0 0.00 0.00 0.00 64 1025.3
20190921161525 78 0.0 0.0 0.00 0.00 0.00 64 1025.4
20190921160527 78 0.0 0.0 0.00 0.00 0.00 64 1025.4
20190921155530 77 0.0 0.0 0.00 0.00 0.00 66 1025.5
20190921154533 77 0.0 0.0 0.00 0.00 0.00 69 1025.5
20190921153518 76 0.0 0.0 0.00 0.00 0.00 69 1025.6
20190921152520 75 0.0 0.0 0.00 0.00 0.00 71 1025.7
20190921151524 75 0.0 0.0 0.00 0.00 0.00 72 1025.7
20190921150526 74 0.0 0.0 0.00 0.00 0.00 74 1025.8
20190921145522 73 0.0 0.0 0.00 0.00 0.00 75 1025.9
20190921144519 73 0.0 0.0 0.00 0.00 0.00 75 1025.9
20190921143516 72 0.0 0.0 0.00 0.00 0.00 76 1025.9
20190921142519 71 0.0 0.0 0.00 0.00 0.00 77 1026.0
20190921141522 71 112 0.0 2.0 0.00 0.00 0.00 77 1026.0
20190921140524 70 0.0 0.0 0.00 0.00 0.00 79 1026.1
20190921135527 69 90 0.0 2.0 0.00 0.00 0.00 80 1026.1
20190921134530 68 0.0 1.0 0.00 0.00 0.00 82 1026.2
20190921133515 67 0.0 1.0 0.00 0.00 0.00 84 1026.2
20190921132517 66 0.0 0.0 0.00 0.00 0.00 84 1026.0
20190921131520 65 0.0 0.0 0.00 0.00 0.00 85 1026.2
20190921130523 65 0.0 0.0 0.00 0.00 0.00 86 1026.4
20190921125526 64 0.0 0.0 0.00 0.00 0.00 87 1026.5
20190921124529 63 0.0 0.0 0.00 0.00 0.00 89 1026.5
20190921123531 62 0.0 0.0 0.00 0.00 0.00 90 1026.5
20190921122516 61 0.0 0.0 0.00 0.00 0.00 90 1026.4
20190921121519 61 0.0 0.0 0.00 0.00 0.00 90 1026.4
20190921120521 60 0.0 0.0 0.00 0.00 0.00 90 1026.4
20190921115524 60 0.0 0.0 0.00 0.00 0.00 90 1026.5
20190921114527 59 0.0 0.0 0.00 0.00 0.00 90 1026.5
20190921113517 59 0.0 0.0 0.00 0.00 0.00 90 1026.3
20190921112532 58 0.0 0.0 0.00 0.00 0.00 90 1026.2
20190921111517 58 0.0 0.0 0.00 0.00 0.00 90 1026.1
20190921110520 58 0.0 0.0 0.00 0.00 0.00 90 1025.9
20190921105522 58 0.0 0.0 0.00 0.00 0.00 90 1025.8
20190921104525 58 0.0 0.0 0.00 0.00 0.00 90 1025.9
20190921103529 57 0.0 0.0 0.00 0.00 0.00 89 1025.9
20190921102531 57 0.0 0.0 0.00 0.00 0.00 89 1025.7
20190921101516 57 0.0 0.0 0.00 0.00 0.00 89 1025.7
20190921100518 57 0.0 0.0 0.00 0.00 0.00 89 1025.7
20190921095521 57 0.0 0.0 0.00 0.00 0.00 89 1025.8
20190921094524 57 0.0 0.0 0.00 0.00 0.00 88 1025.8
20190921093527 57 0.0 0.0 0.00 0.00 0.00 88 1025.8
20190921092530 57 0.0 0.0 0.00 0.00 0.00 88 1025.7
20190921091533 57 0.0 0.0 0.00 0.00 0.00 88 1025.7
20190921090517 58 0.0 0.0 0.00 0.00 0.00 88 1025.7
20190921085520 58 0.0 0.0 0.00 0.00 0.00 88 1025.7
20190921084522 58 0.0 0.0 0.00 0.00 0.00 88 1025.7
20190921083519 58 0.0 0.0 0.00 0.00 0.00 88 1025.7
20190921082516 58 0.0 0.0 0.00 0.00 0.00 88 1025.8
20190921081531 58 0.0 0.0 0.00 0.00 0.00 88 1025.7
20190921080516 58 0.0 0.0 0.00 0.00 0.00 88 1025.9
20190921075519 58 0.0 0.0 0.00 0.00 0.00 88 1025.9
20190921074521 58 0.0 0.0 0.00 0.00 0.00 88 1025.9
20190921073524 58 0.0 0.0 0.00 0.00 0.00 88 1025.9
20190921072527 58 0.0 0.0 0.00 0.00 0.00 88 1026.0
20190921071530 58 0.0 0.0 0.00 0.00 0.00 88 1026.1
20190921070533 58 0.0 0.0 0.00 0.00 0.00 88 1026.1
20190921065517 58 0.0 0.0 0.00 0.00 0.00 88 1026.1
20190921064520 57 0.0 0.0 0.00 0.00 0.00 88 1026.1
20190921063523 57 0.0 0.0 0.00 0.00 0.00 88 1026.1
20190921062526 57 0.0 0.0 0.00 0.00 0.00 88 1026.1
20190921061528 57 0.0 0.0 0.00 0.00 0.00 88 1026.0
20190921060531 57 0.0 0.0 0.00 0.00 0.00 87 1025.9
20190921055516 57 0.0 0.0 0.00 0.00 0.00 87 1026.0
20190921054520 57 0.0 0.0 0.00 0.00 0.00 87 1026.1
20190921053522 57 0.0 0.0 0.00 0.00 0.00 86 1026.1
20190921052518 57 0.0 0.0 0.00 0.00 0.00 86 1026.0
20190921051515 57 0.0 0.0 0.00 0.00 0.00 86 1026.1
20190921050530 57 0.0 0.0 0.00 0.00 0.00 86 1026.1
20190921045515 57 0.0 0.0 0.00 0.00 0.00 86 1026.1
20190921044518 56 0.0 0.0 0.00 0.00 0.00 86 1026.0
20190921043520 56 0.0 0.0 0.00 0.00 0.00 86 1025.9
20190921042524 56 0.0 0.0 0.00 0.00 0.00 86 1025.8
20190921041526 56 0.0 0.0 0.00 0.00 0.00 86 1025.8
20190921040529 56 0.0 0.0 0.00 0.00 0.00 86 1025.8
20190921035531 56 0.0 0.0 0.00 0.00 0.00 86 1025.7
20190921034516 56 0.0 0.0 0.00 0.00 0.00 86 1025.8
20190921033519 56 0.0 0.0 0.00 0.00 0.00 86 1025.9
20190921032522 57 0.0 0.0 0.00 0.00 0.00 86 1026.0
20190921031525 57 0.0 0.0 0.00 0.00 0.00 86 1025.9
20190921030527 57 0.0 0.0 0.00 0.00 0.00 85 1026.1
20190921025530 57 0.0 0.0 0.00 0.00 0.00 85 1026.0
20190921024515 57 0.0 0.0 0.00 0.00 0.00 85 1026.0
20190921023518 57 0.0 0.0 0.00 0.00 0.00 85 1026.0
20190921022521 57 0.0 0.0 0.00 0.00 0.00 85 1026.0
20190921021517 57 0.0 0.0 0.00 0.00 0.00 84 1025.9
20190921020526 57 0.0 0.0 0.00 0.00 0.00 84 1026.0
20190921015529 58 0.0 0.0 0.00 0.00 0.00 83 1025.8
20190921014532 58 0.0 0.0 0.00 0.00 0.00 82 1025.9
20190921013517 58 0.0 0.0 0.00 0.00 0.00 82 1025.9
20190921012520 58 0.0 0.0 0.00 0.00 0.00 81 1025.8
20190921011523 59 0.0 0.0 0.00 0.00 0.00 80 1025.8
20190921010525 59 0.0 0.0 0.00 0.00 0.00 80 1025.8
20190921005528 59 0.0 0.0 0.00 0.00 0.00 80 1025.8
20190921004531 59 0.0 0.0 0.00 0.00 0.00 80 1025.8
20190921003515 60 0.0 0.0 0.00 0.00 0.00 80 1025.7
20190921002518 60 0.0 0.0 0.00 0.00 0.00 79 1025.7
20190921001521 61 0.0 0.0 0.00 0.00 0.00 79 1025.5
20190921000524 61 0.0 0.0 0.00 0.00 0.00 78 1025.4
20190920235527 62 0.0 0.0 0.00 0.00 0.00 77 1025.5
20190920234530 62 0.0 0.0 0.00 0.00 0.00 76 1025.4
20190920233526 63 0.0 0.0 0.00 0.00 0.00 75 1025.3
20190920232517 64 0.0 0.0 0.00 0.00 0.00 74 1025.4
20190920231521 65 0.0 0.0 0.00 0.00 0.00 73 1025.3
20190920230517 66 0.0 0.0 0.00 0.00 0.00 72 1025.0
20190920225525 67 0.0 0.0 0.00 0.00 0.00 74 1024.9
20190920224528 68 0.0 0.0 0.00 0.00 0.00 74 1024.9
20190920223531 69 0.0 0.0 0.00 0.00 0.00 74 1024.9
20190920222516 69 0.0 0.0 0.00 0.00 0.00 73 1024.9
20190920221518 70 0.0 0.0 0.00 0.00 0.00 72 1025.0
20190920220521 70 0.0 0.0 0.00 0.00 0.00 72 1024.9
20190920215524 70 0.0 0.0 0.00 0.00 0.00 70 1024.9
20190920214526 71 0.0 0.0 0.00 0.00 0.00 69 1025.0
20190920213529 71 0.0 0.0 0.00 0.00 0.00 69 1025.0
20190920212532 71 0.0 0.0 0.00 0.00 0.00 67 1025.0
20190920211517 72 0.0 0.0 0.00 0.00 0.00 66 1025.0
20190920210519 72 0.0 0.0 0.00 0.00 0.00 66 1024.9
20190920205522 72 0.0 0.0 0.00 0.00 0.00 64 1025.0
20190920204525 73 0.0 0.0 0.00 0.00 0.00 63 1024.9
20190920203528 73 0.0 0.0 0.00 0.00 0.00 62 1024.9
20190920202524 74 0.0 0.0 0.00 0.00 0.00 62 1024.9
20190920201515 74 0.0 0.0 0.00 0.00 0.00 62 1025.0
20190920200518 74 0.0 0.0 0.00 0.00 0.00 61 1025.0
20190920195515 74 0.0 0.0 0.00 0.00 0.00 61 1025.1